BMCB-13 Weather Reports


time (UTC)temp
C
wind
direction
speed
KPH
gust
KPH
rain 1hr
cm
rain 24hr
cm
rain mn
cm
humidity
%
barometer
mb
20260505153045 11 9 8.0 17.7 0.00 0.38 0.00 94 1007.5
20260505151043 11 17 4.8 14.5 0.00 0.51 0.00 94 1007.6
20260505124046 11 17 6.4 12.9 0.00 1.17 0.00 94 1008.2
20260505123046 11 18 8.0 16.1 0.00 1.17 0.00 94 1008.3
20260505121045 12 11 8.0 17.7 0.00 1.17 0.00 94 1008.3
20260505120045 12 350 8.0 17.7 0.00 1.17 0.00 94 1008.2
20260505115044 12 72 6.4 14.5 0.00 1.17 0.00 94 1008.3
20260505114047 12 188 8.0 16.1 0.00 1.17 0.00 94 1008.3
20260505113045 12 20 8.0 17.7 0.00 1.17 0.00 95 1008.3
20260505112046 12 18 8.0 16.1 0.00 1.17 0.00 95 1008.3
20260505111048 12 20 9.7 17.7 0.00 1.17 0.00 95 1008.3
20260505101049 12 16 9.7 19.3 0.00 1.17 0.00 97 1008.5
20260505100044 12 14 8.0 19.3 0.00 1.17 0.00 97 1008.5
20260505095046 12 12 8.0 17.7 0.00 1.17 0.00 97 1008.5
20260505094048 12 16 8.0 17.7 0.00 1.17 0.00 96 1008.5
20260505093047 12 17 8.0 17.7 0.00 1.17 0.00 97 1008.6
20260505092045 12 12 8.0 19.3 0.00 1.17 0.00 96 1008.6
20260505091047 12 94 8.0 16.1 0.00 1.17 0.00 96 1008.6
20260505090045 13 305 8.0 14.5 0.00 1.17 0.00 95 1008.5
20260505085047 13 49 4.8 6.4 0.00 1.17 0.00 92 1008.5
20260505084046 14 42 4.8 8.0 0.00 1.17 0.00 89 1008.4
20260505083046 15 23 3.2 9.7 0.00 1.17 0.00 89 1008.4
20260505082048 15 17 3.2 9.7 0.00 1.17 0.00 91 1008.3
20260505080050 14 23 3.2 8.0 0.00 1.17 0.00 92 1008.4
20260505075042 14 5 3.2 8.0 0.00 1.17 0.00 92 1008.5
20260505074044 14 33 3.2 8.0 0.00 1.17 0.00 94 1008.5
20260505073043 13 15 3.2 8.0 0.00 1.17 0.00 94 1008.5
20260505072044 13 30 3.2 6.4 0.00 1.17 0.00 94 1008.5
20260505071045 13 22 3.2 6.4 0.00 1.17 0.00 97 1008.5
20260505065046 12 15 1.6 4.8 0.00 1.17 0.00 99 1008.6
20260505064044 12 20 3.2 4.8 0.00 1.17 0.00 99 1008.7
20260505063043 12 30 1.6 4.8 0.00 1.17 0.00 99 1008.8
20260505062044 12 16 3.2 4.8 0.00 1.17 0.00 99 1008.8
20260505061046 12 9 3.2 4.8 0.00 1.17 0.00 10 1008.9
20260505060044 12 36 3.2 4.8 0.00 1.17 0.00 10 1008.9
20260505055047 12 54 1.6 4.8 0.00 1.17 0.00 10 1008.9
20260505054045 12 71 1.6 3.2 0.00 1.17 0.00 10 1008.9
20260505053046 12 24 0.0 0.0 0.00 1.17 0.00 10 1008.8
20260505052044 12 87 1.6 3.2 0.00 1.17 0.00 99 1008.8
20260505051047 12 134 0.0 1.6 0.00 1.17 0.00 99 1008.8
20260505041043 11 135 0.0 0.0 0.00 1.17 0.00 99 1008.9
20260505040045 12 279 0.0 0.0 0.00 1.17 0.00 99 1008.9
20260505035046 12 193 0.0 0.0 0.00 1.17 0.00 99 1008.9
20260505034045 11 172 0.0 0.0 0.00 1.17 0.00 98 1009.0
20260505033048 11 160 1.6 3.2 0.00 1.17 0.00 98 1009.0
20260505032044 12 251 1.6 3.2 0.00 1.17 0.00 98 1009.1
20260505031044 12 262 0.0 3.2 0.00 1.17 0.00 98 1009.1
20260505030045 12 183 0.0 3.2 0.00 1.17 0.00 98 1009.2
20260505025046 12 52 0.0 1.6 0.00 1.17 0.00 98 1009.2
20260505024048 12 121 3.2 6.4 0.00 1.17 0.00 98 1009.3
20260505022046 12 105 1.6 3.2 0.00 1.17 0.00 98 1009.4
20260505021046 12 87 1.6 4.8 0.00 1.17 0.00 99 1009.4
20260505020047 12 70 1.6 3.2 0.00 1.17 0.00 98 1009.4
20260505015046 12 81 1.6 3.2 0.00 1.17 0.00 98 1009.4
20260505014046 12 317 0.0 1.6 0.00 1.17 0.00 97 1009.5
20260505013044 12 5 1.6 1.6 0.00 1.17 0.00 97 1009.5
20260505012046 12 143 1.6 3.2 0.00 1.17 0.00 97 1009.5
20260505011044 12 218 1.6 4.8 0.00 1.17 0.00 96 1009.6
20260505010044 12 257 0.0 1.6 0.00 1.17 0.00 97 1009.7
20260505005047 12 93 0.0 0.0 0.00 1.17 0.00 97 1009.8
20260505003046 12 151 1.6 3.2 0.00 1.17 0.00 95 1009.9
20260505002044 12 173 0.0 3.2 0.00 1.17 0.00 95 1010.0
20260505001047 12 135 1.6 3.2 0.00 1.17 0.00 96 1010.1
20260505000047 12 196 1.6 6.4 0.00 1.17 0.00 95 1010.1
20260504235046 12 200 1.6 3.2 0.00 1.17 0.00 94 1010.1
20260504233048 12 345 1.6 3.2 0.00 1.17 0.00 95 1010.3
20260504231047 12 167 1.6 4.8 0.00 1.17 0.00 95 1010.4
20260504225050 12 174 3.2 4.8 0.00 1.17 0.00 94 1010.5
20260504224047 12 162 1.6 4.8 0.00 1.17 0.00 94 1010.7
20260504223045 12 175 1.6 4.8 0.00 1.17 0.00 95 1010.8
20260504221049 12 164 3.2 4.8 0.00 1.17 0.00 95 1010.9
20260504220046 12 162 3.2 4.8 0.00 1.17 0.00 94 1011.0
20260504215048 12 154 1.6 4.8 0.00 1.17 1.17 95 1011.1
20260504214050 12 150 3.2 4.8 0.00 1.17 1.17 95 1011.1
20260504212048 12 135 1.6 3.2 0.00 1.17 1.17 97 1011.2
20260504210047 13 158 1.6 6.4 0.00 1.17 1.17 95 1011.3
20260504204050 13 206 3.2 6.4 0.00 1.17 1.17 94 1011.4
20260504203045 13 165 1.6 4.8 0.00 1.17 1.17 95 1011.5
20260504201051 13 126 1.6 6.4 0.00 1.17 1.17 95 1011.5
20260504200053 13 208 3.2 6.4 0.00 1.17 1.17 94 1011.4
20260504195048 13 210 3.2 4.8 0.00 1.17 1.17 93 1011.4
20260504194049 13 207 3.2 4.8 0.00 1.17 1.17 93 1011.3
20260504193048 13 180 3.2 8.0 0.00 1.17 1.17 92 1011.3
20260504192049 13 173 4.8 9.7 0.00 1.17 1.17 92 1011.2
20260504191050 13 173 4.8 9.7 0.00 1.17 1.17 91 1011.2
20260504190049 13 178 6.4 12.9 0.00 1.17 1.17 90 1011.0
20260504185050 13 176 6.4 16.1 0.00 1.17 1.17 89 1011.0
20260504184049 13 176 6.4 16.1 0.00 1.17 1.17 91 1010.9
20260504183048 14 173 1.6 4.8 0.00 1.17 1.17 95 1010.9
20260504181051 14 202 1.6 3.2 0.00 1.17 1.17 95 1010.9
20260504180051 14 163 1.6 3.2 0.00 1.17 1.17 95 1011.0
20260504175049 14 151 1.6 3.2 0.00 1.17 1.17 94 1011.1
20260504174048 14 166 3.2 6.4 0.00 1.17 1.17 94 1011.1
20260504173052 13 166 3.2 6.4 0.03 1.17 1.17 93 1011.2
20260504172049 13 180 3.2 6.4 0.03 1.17 1.17 94 1011.2